Regional Weather Roundup
Issued by NWS Newport/Morehead, NC

Current Version | Previous Version | Graphics & Text | Print | Product List | Glossary Off
Versions: 1 2 3 4 5 6 7 8 9 10 11 12 13 14 15 16 17 18 19 20 21 22 23 24 25 26 27 28 29 30 31 32 33 34 35 36 37 38 39 40 41 42 43 44 45 46 47 48 49 50

000
ASUS42 KMHX 302013
RWRMHX
WEATHER ROUNDUP FOR EASTERN NORTH CAROLINA
NATIONAL WEATHER SERVICE NEWPORT/MOREHEAD CITY NC
400 PM EDT SUN AUG 30 2015

NOTE: "FAIR" INDICATES FEW OR NO CLOUDS BELOW 12,000 FEET
WITH NO SIGNIFICANT WEATHER AND/OR OBSTRUCTIONS TO VISIBILITY

NCZ015>017-031-032-045>047-102-103-302100-
NORTH COAST

CITY           SKY/WX    TMP DP  RH WIND       PRES   REMARKS
EDENTON        CLOUDY    84  67  56 SE7       30.11S
ELIZABETH CITY CLOUDY    82  69  64 SE8       30.11S
KITTY HAWK     CLOUDY    80  69  70 NE3       30.10F
MANTEO         CLOUDY    78  70  77 NE8       30.12S

$$

NCZ045>047-081-094-103-104-302100-
CENTRAL COAST

CITY           SKY/WX    TMP DP  RH WIND       PRES   REMARKS
FRISCO         CLOUDY    82  73  74 N6        30.11S
SWANQUARTER    NOT AVBL

$$

NCZ095-097-098-100-101-302100-
SOUTHERN COAST

CITY           SKY/WX    TMP DP  RH WIND       PRES   REMARKS
BEAUFORT       MOSUNNY   82  69  64 SE7       30.12S
CEDAR ISLAND   NOT AVBL
JACKSONVILLE   PTSUNNY   82  63  52 S5        30.12S
PINEY ISLAND   PTCLDY   N/A N/A N/A E5        30.12S
WILMINGTON     CLOUDY    80  65  59 SE5       30.13F


$$

NCZ011>013-027>030-043-044-078>080-089-090>093-098-302100-
COASTAL PLAIN

CITY           SKY/WX    TMP DP  RH WIND       PRES   REMARKS
AHOSKIE        CLOUDY    83  61  46 E5        30.10F
CLINTON        CLOUDY    82  65  57 CALM      30.15R
ELIZABETHTOWN  LGT RAIN  79  67  66 CALM      30.15R
GOLDSBORO      PTSUNNY   86  65  49 S6        30.11S
GREENVILLE     PTSUNNY   86  61  42 S3        30.12F
HAVELOCK       PTSUNNY   85  63  47 SE5       30.13S
KENANSVILLE      N/A     81  65  59 CALM      30.14S
KINSTON        PTSUNNY   86  61  42 CALM      30.12F
NEW BERN       MOSUNNY   84  62  47 CALM      30.13S
RICHLANDS      PTSUNNY   84  61  45 S3        30.13R
ROCKY MOUNT    CLOUDY    87  61  41 S5        30.11S
WASHINGTON     PTSUNNY   85  61  44 E5        30.11S
WHITEVILLE     LGT RAIN  73  70  90 CALM      30.15S

$$

AMZ130-135-150-152-154-156-158-170-250-252-270-ANZ085-086-088-633-658-670-302100-
MARINE OBSERVATIONS

STATION/POSITION TIME  TEMP    WIND        PRES    WAVE   SWELL
                       AIR SEA DIR/SP/G            HT/PER HT/PER
                 (UTC) (F)     (DEG/KT/KT) (MB)    (FT/S) (FT/S)
CHESAPEAKE LIGHT 2000   78     110/  5/  5 1020.4
64 E VA BEACH    1950   78 79   60/  6/  8 1019.3    3/10   3/10
DUCK             NOT AVBL
2 E DUCK         1911      79                N/A     3/11   2/11
OREGON INLET     NOT AVBL
13E OREGON INLT  1900      79                N/A     4/11   2/11
HATTERAS CG      NOT AVBL
DIAMOND BUOY     1950   80 82   20/  4/  8 1019.7    3/ 9   3/ 9
CAPE LOOKOUT     2000   80     120/  3/  3 1019.7
BEAUFORT LAB     NOT AVBL
30 SE NEW RVR IN 1908   80 81  110/  4/  8 1020.7
30 SE NEW RVR IN 1925      82                N/A     4/ 9   2/11
27 SE WRIGHTSVLE 1900   78 82   90/  2/  4   N/A
5 SE WRIGHTSVLE  1908   80 82  110/  4/  8 1020.7
225 S CAPE HAT   1950   83 85   50/  8/ 10 1020.4    5/10   5/10
41 SE CHARLESTON 1950   76 84  350/  6/  8 1020.0    4/11   3/11

$$


USA.gov is the U.S. government's official web portal to all federal, state and local government web resources and services.